Tracking 21076 objects as of 10-Aug-2020
HD Live streaming from Space Station
objects crossing your sky now
Track the most recent launched group of Starlink satellites

TITAN 3C TRANSTAGE R/B

Track TITAN 3C TRANSTAGE R/B now!


NORAD ID: 11560
Int'l Code: 1979-086C
Perigee: 30,176.0 km
Apogee: 41,747.9 km
Inclination: 6.1 °
Period: 1,444.7 minutes
Semi major axis: 42332 km
RCS: Unknown
Launch date: October 1, 1979
Source: United States (US)
Launch site: AIR FORCE EASTERN TEST RANGE (AFETR)

Note: This is a ROCKET BODY
aabbcc
Your satellite tracking list
Your tracking list is empty




NASA's NSSDC Master Catalog

Two Line Element Set (TLE):
1 11560U 79086C   20222.39819314 -.00000182 +00000-0 +00000-0 0  9991
2 11560 006.0649 353.6846 1366769 106.7363 268.8433 00.99674657004932
Source of the keplerian elements: McCants